Skip Page Navigation
NASA JPL Caltech
NASA Logo - Jet Propulsion Laboratory + View the NASA Portal
+ Center for Near-Earth Object Studies
JPL Home Earth Solar System Stars & Galaxies Technology
JPL Solar System Dynamics
BODIES ORBITS EPHEMERIDES TOOLS PHYSICAL DATA DISCOVERY FAQ SITE MAP
IMPORTANT: The SSD Announcement email list is now available. Major changes are coming in the near future, including possible hostname and/or URL changes. To be notified of such changes, subscribe to this email list.

Please visit this page for more details.


JPL Small-Body Database Browser
Search: [ help ]  
452877 (2006 SC408)
Classification: Main-belt Asteroid          SPK-ID: 2452877
Ephemeris | Orbit Diagram | Orbital Elements | Mission Design | Physical Parameters | Discovery Circumstances ]

[ show orbit diagram ]
Orbital Elements at Epoch 2458600.5 (2019-Apr-27.0) TDB
Reference: JPL 12 (heliocentric ecliptic J2000)
 Element Value Uncertainty (1-sigma)   Units 
e .1920649465021989 6.7789e-08  
a 2.692241597126315 2.8915e-08 au
q 2.175156358803255 1.862e-07 au
i 13.515784210974 9.9204e-06 deg
node 212.8098126526228 2.9104e-05 deg
peri 122.9396745795929 4.2721e-05 deg
M 343.1980606728297 2.5486e-05 deg
tp 2458675.805445727572
(2019-Jul-11.30544573)
0.00011398 TDB
period 1613.501866304596
4.42
2.5994e-05
7.117e-08
d
yr
n .223117188469393 3.5945e-09 deg/d
Q 3.209326835449375 3.4469e-08 au
  Orbit Determination Parameters
   # obs. used (total)      119  
   data-arc span      4777 days (13.08 yr)  
   first obs. used      2006-09-27  
   last obs. used      2019-10-26  
   planetary ephem.      DE431  
   SB-pert. ephem.      SB431-N16  
   condition code      0  
   norm. resid. RMS      .51273  
   source      ORB  
   producer      Otto Matic  
   solution date      2019-Nov-08 16:51:36  

Additional Information
 Earth MOID = 1.19935 au 
 Jupiter MOID = 2.37008 au 
 T_jup = 3.305 
[ show covariance matrix ]

Ephemeris | Orbit Diagram | Orbital Elements | Mission Design | Physical Parameters | Discovery Circumstances ]

Physical Parameter Table
Parameter Symbol Value Units Sigma Reference Notes
absolute magnitude H 17.4   n/a MPO446795  
diameter diameter 1.574 km 0.599 urn:nasa:pds:neowise_diameters_albedos::2.0[mainbelt] (http://adsabs.harvard.edu/abs/2011ApJ...741...68M)  
geometric albedo albedo 0.071   0.051 urn:nasa:pds:neowise_diameters_albedos::2.0[mainbelt] (http://adsabs.harvard.edu/abs/2011ApJ...741...68M)  

452877 (2006 SC408)          Discovered 2006-Sep-27 by Mt. Lemmon Survey at Mount Lemmon
Reference: Last Updated: 2016-01-04
Ephemeris | Orbit Diagram | Orbital Elements | Mission Design | Physical Parameters | Discovery Circumstances ]
ABOUT SSD CREDITS/AWARDS PRIVACY/COPYRIGHT GLOSSARY LINKS
FirstGov 2019-Dec-11 04:23 UT
(server date/time)  
NASA Home Page
Site Manager:   Ryan S. Park
Webmaster  Alan B. Chamberlin